Location: Garden of he Gods Recreation Area
(37.6010°N, 88.3780°W)
Time: 05:34:20
(UTC-05:00)

ISS - Visible Passes

Search period start: 26 March 2019 00:00
Search period end: 05 April 2019 00:00
Orbit: 408 x 411 km, 51.6° (Epoch: 26 March)

Date Brightness Start Highest point End Pass type
(mag) Time Alt. Az. Time Alt. Az. Time Alt. Az.
26 Mar -1.4 19:35:59 10° W 19:38:33 21° NNW 19:41:08 10° NNE visible
01 Apr -1.1 21:01:58 10° N 21:03:20 12° NNE 21:03:20 12° NNE visible
02 Apr -0.7 21:46:42 10° NNW 21:47:22 14° NNW 21:47:22 14° NNW visible
03 Apr -1.9 20:56:14 10° NNW 20:58:39 20° NNE 20:58:39 20° NNE visible
04 Apr -1.4 20:05:54 10° NNW 20:07:46 14° NNE 20:09:38 10° ENE visible
04 Apr -1.2 21:41:29 10° NW 21:42:44 21° NW 21:42:44 21° NW visible
